This is the latest recevied weather packets stored in our database for station/object VA6GSB-13. If no packets are shown the sender has not sent any weather packets the latest 10 day(s).
| Time | Temp. | Humidity | Pressure | Rain* | Wind** | Luminosity | Snow |
|---|---|---|---|---|---|---|---|
| 1787583263 | 16.11° C | 80% | 1014.7 hPa | 0 mm | - | 68 W/m² | - |
| 1787582963 | 16.11° C | 80% | 1014.7 hPa | 0 mm | - | 62 W/m² | - |
| 1787582740 | 16.11° C | 79% | 1015 hPa | 0 mm | - | 59 W/m² | - |
| 1787582663 | 16.11° C | 79% | 1014.7 hPa | 0 mm | - | 59 W/m² | - |
| 1787582364 | 16.11° C | 79% | 1014.4 hPa | 0 mm | - | 66 W/m² | - |
| 1787582064 | 16.11° C | 79% | 1014.3 hPa | 0 mm | - | 73 W/m² | - |
| 1787581764 | 16.11° C | 79% | 1014.1 hPa | 0 mm | - | 73 W/m² | - |
| 1787581540 | 16.11° C | 79% | 1014 hPa | 0 mm | - | 82 W/m² | - |
| 1787581239 | 16.11° C | 79% | 1014 hPa | 0 mm | - | 108 W/m² | - |
| 1787581164 | 16.11° C | 79% | 1013.9 hPa | 0 mm | - | 108 W/m² | - |
| 1787580940 | 16.11° C | 79% | 1014 hPa | 0 mm | - | 121 W/m² | - |
| 1787580639 | 16.11° C | 79% | 1014 hPa | 0 mm | - | 153 W/m² | - |
| 1787580340 | 15.56° C | 79% | 1014 hPa | 0 mm | - | 145 W/m² | - |
| 1787580040 | 15.56° C | 80% | 1014 hPa | 0 mm | - | 103 W/m² | - |
| 1787579739 | 15.56° C | 80% | 1014 hPa | 0 mm | - | 92 W/m² | - |
| 1787579440 | 15.56° C | 81% | 1014 hPa | 0 mm | - | 80 W/m² | - |
| 1787579139 | 15.56° C | 81% | 1014 hPa | 0 mm | - | 69 W/m² | - |
| 1787579064 | 15.56° C | 81% | 1013.6 hPa | 0 mm | - | 69 W/m² | - |
| 1787578840 | 15.56° C | 82% | 1014 hPa | 0 mm | - | 52 W/m² | - |
| 1787578539 | 15.56° C | 81% | 1014 hPa | 0 mm | - | 42 W/m² | - |
| 1787578239 | 15.56° C | 81% | 1014 hPa | 0 mm | - | 41 W/m² | - |
| 1787578164 | 15.56° C | 81% | 1013.5 hPa | 0 mm | - | 41 W/m² | - |
| 1787577940 | 15° C | 80% | 1013 hPa | 0 mm | - | 37 W/m² | - |
| 1787577864 | 15° C | 80% | 1013.4 hPa | 0 mm | - | 37 W/m² | - |
| 1787577639 | 15° C | 81% | 1013 hPa | 0 mm | - | 34 W/m² | - |
* Rain latest hour (hover to see other rain measurements)
** Current wind speed in m/s (hover to see current wind gust speed)